{"data":{"norad_id":42921,"intl_designator":"2017-050A","name":"ORS-5 SENSORSAT","alt_names":[],"object_type":"PAYLOAD","status":"ACTIVE","operator":null,"country":"US","launch_date":"2017-08-26","launch_site_code":"AFETR","launch_vehicle":null,"mission":null,"orbit_class":"UNKNOWN","rcs_meters":null,"size_class":null,"mass_kg":null,"dimensions":null,"purposes":[],"wikipedia_slug":null,"has_3d_model":false,"image_url":null,"decayed_at":null,"tle_current":{"epoch":"2026-05-25T02:41:05.853984Z","epoch_age_seconds":59419,"freshness":"FRESH","line1":"1 42921U 17050A   26145.11187331  .00002349  00000+0  11593-3 0  9993","line2":"2 42921   0.0497 318.3370 0010460  78.0004 323.7337 15.00804065477572","mean_motion":15.00804065,"eccentricity":0.001046,"inclination_deg":0.0497,"raan_deg":318.337,"arg_perigee_deg":78.0004,"mean_anomaly_deg":323.7337,"bstar":0.00011593,"rev_number":47757,"period_min":95.948567410097,"perigee_km":557.15365126491,"apogee_km":571.67747122304,"semimajor_km":6942.552561244,"source":"CELESTRAK","updated_at":"2026-05-25T13:37:55.720189Z"}}}